EA5ILC Weather Reports


time (UTC)temp
F
wind
direction
speed
knots
gust
knots
rain 1hr
in
rain 24hr
in
rain mn
in
humidity
%
barometer
mb
20260508080535 0 0.0 0.0 0.00 1.20 0.00 1015.7
20260508075532 0 0.0 0.0 0.00 1.20 0.00 1015.5
20260508074529 0 0.0 0.0 0.00 1.20 0.00 1015.3
20260508073546 0 0.0 0.0 0.00 1.20 0.00 1015.5
20260508072544 0 0.0 0.0 0.00 1.20 0.00 1015.4
20260508071521 0 0.0 0.0 0.00 1.20 0.00 1015.1
20260508070519 0 0.0 0.0 0.00 1.20 0.00 1015.0
20260508065517 59 0.0 0.0 0.00 1.20 0.00 76 1015.1
20260508064614 58 0.0 0.0 0.00 1.20 0.00 76 1015.0
20260508063611 58 68 0.0 1.7 0.00 1.20 0.00 77 1014.7
20260508062609 57 0.0 0.0 0.00 1.20 0.00 79 1014.7
20260508061606 57 0.0 0.0 0.00 1.20 0.00 78 1014.8
20260508060603 56 0.0 0.0 0.00 1.20 0.00 79 1014.8
20260508055601 0 0.0 0.0 0.00 1.20 0.00 1014.7
20260508054558 0 0.0 0.0 0.00 1.20 0.00 1014.6
20260508053555 0 0.0 0.0 0.00 1.20 0.00 1014.5
20260508052613 0 0.0 0.0 0.00 1.20 0.00 1014.3
20260508051610 53 0.0 0.0 0.00 1.20 0.00 86 1014.2
20260508050548 0 0.0 0.0 0.00 1.20 0.00 1014.1
20260508045545 0 0.0 0.0 0.00 1.20 0.00 1014.2
20260508044543 0 0.0 0.0 0.00 1.20 0.00 1014.2
20260508043540 57 0.0 0.0 0.00 1.20 0.00 75 1013.8
20260508042537 56 0.0 0.0 0.00 1.20 0.00 78 1013.5
20260508041535 55 0.0 1.7 0.00 1.20 0.00 81 1013.4
20260508040532 55 0.0 0.0 0.00 1.20 0.00 82 1013.4
20260508035529 55 0.0 0.0 0.00 1.20 0.00 84 1013.4
20260508034527 55 0.0 1.7 0.00 1.20 0.00 83 1013.5
20260508033524 56 90 0.0 1.7 0.00 1.20 0.00 81 1013.7
20260508032602 55 113 0.0 1.7 0.00 1.20 0.00 82 1013.9
20260508031519 55 117 0.9 1.7 0.00 1.20 0.00 84 1013.9
20260508030536 55 129 0.9 1.7 0.00 1.20 0.00 85 1013.8
20260508025614 55 122 0.9 1.7 0.00 1.20 0.00 86 1013.8
20260508024631 54 0.0 0.0 0.00 1.20 0.00 87 1013.8
20260508023608 54 0.0 0.0 0.00 1.20 0.00 86 1013.8
20260508022626 54 0.0 0.0 0.00 1.20 0.00 86 1013.9
20260508021603 55 0.0 0.0 0.00 1.20 0.00 85 1013.9
20260508020620 55 0.0 0.0 0.00 1.20 0.00 85 1013.9
20260508015618 55 23 0.0 1.7 0.00 1.20 0.00 87 1014.2
20260508014556 54 23 0.0 1.7 0.00 1.20 0.00 88 1014.1
20260508013553 54 23 0.0 1.7 0.00 1.20 0.00 88 1014.5
20260508012550 54 0.0 0.0 0.00 1.20 0.00 89 1014.7
20260508011607 54 0.0 1.7 0.00 1.20 0.00 91 1014.8
20260508010545 54 17 0.9 3.5 0.00 1.20 0.00 94 1014.9
20260508005542 53 21 0.9 3.5 0.00 1.20 0.00 96 1015.1
20260508004539 52 23 0.9 3.5 0.00 1.20 0.00 97 1015.3
20260508003557 52 23 0.9 3.5 0.00 1.20 0.00 98 1015.3
20260508002534 52 19 1.7 3.5 0.00 1.20 0.00 98 1015.4
20260508001531 52 18 1.7 3.5 0.00 1.20 0.00 98 1015.6
20260508000529 52 19 1.7 3.5 0.00 1.20 0.00 98 1015.6
20260507235526 52 0.0 0.0 0.00 1.20 0.00 98 1015.7
20260507234524 53 0.0 0.0 0.00 1.20 0.00 98 1015.7
20260507233521 53 0.0 0.0 0.00 1.20 0.00 98 1015.7
20260507232519 53 270 0.9 1.7 0.00 1.20 0.00 98 1015.8
20260507231516 53 0.0 0.0 0.00 1.20 0.00 98 1015.8
20260507230614 53 0.0 0.0 0.00 1.20 0.00 98 1015.8
20260507225631 53 0.0 0.0 0.00 1.20 0.00 98 1015.6
20260507224608 53 43 0.0 1.7 0.00 1.20 0.00 98 1015.7
20260507223606 54 0.0 0.0 0.00 1.20 0.00 98 1015.4
20260507222603 54 0.0 0.0 0.00 1.20 0.00 98 1015.2
20260507221601 54 0.0 0.0 0.00 1.20 0.00 98 1015.4
20260507220558 55 0.0 0.0 0.00 1.20 0.00 98 1015.3
20260507215555 55 0.0 0.0 0.00 1.20 1.20 99 1015.4
20260507214553 55 0.0 0.0 0.00 1.20 1.20 99 1015.5
20260507213610 55 0.0 0.0 0.00 1.20 1.20 99 1015.5
20260507212547 55 0.0 0.0 0.00 1.20 1.20 99 1015.5
20260507211605 55 0.0 0.0 0.00 1.20 1.20 98 1015.4
20260507210542 56 0.0 0.0 0.00 1.20 1.20 98 1015.3
20260507205540 56 0.0 0.0 0.00 1.20 1.20 98 1015.3
20260507204537 56 0 0.0 1.7 0.00 1.20 1.20 98 1015.3
20260507203534 56 0.0 1.7 0.00 1.20 1.20 98 1015.3
20260507202532 56 9 0.9 3.5 0.01 1.20 1.20 98 1015.3
20260507201529 56 14 0.9 3.5 0.01 1.20 1.20 98 1015.1
20260507200527 56 0.0 0.0 0.01 1.20 1.20 98 1015.0
20260507195524 56 0.0 1.7 0.01 1.20 1.20 98 1014.9
20260507194521 56 0.0 1.7 0.02 1.20 1.20 98 1014.8
20260507193519 56 90 0.0 1.7 0.04 1.20 1.20 98 1014.7
20260507192516 0 0.0 0.0 0.02 1.19 1.19 1014.6
20260507191614 56 0.0 0.0 0.04 1.19 1.19 98 1014.5
20260507190611 56 0.0 0.0 0.06 1.19 1.19 98 1014.4
20260507185648 56 0.0 0.0 0.09 1.19 1.19 97 1014.3
20260507184606 56 0.0 0.0 0.14 1.18 1.18 97 1014.2
20260507183603 56 135 0.0 1.7 0.15 1.17 1.17 97 1014.3
20260507182600 56 135 0.0 1.7 0.19 1.17 1.17 97 1014.2
20260507181558 56 138 0.9 1.7 0.20 1.16 1.16 97 1014.2
20260507180615 56 225 0.0 1.7 0.22 1.13 1.13 97 1014.2
20260507175552 56 167 0.9 1.7 0.39 1.10 1.10 96 1014.0
20260507174550 56 168 1.7 3.5 0.70 1.04 1.04 96 1014.1
20260507173547 56 177 1.7 3.5 0.99 1.02 1.02 96 1013.7
20260507172545 56 9 0.9 3.5 0.98 0.98 0.98 95 1013.3
20260507171542 56 16 2.6 3.5 0.96 0.96 0.96 95 1013.2
20260507170539 55 347 3.5 7.0 0.91 0.91 0.91 95 1013.1
20260507165537 55 21 4.3 9.6 0.71 0.71 0.71 93 1013.2
20260507164534 57 67 0.9 1.7 0.34 0.34 0.34 90 1013.2
20260507163612 58 2 3.5 7.0 0.02 0.02 0.02 84 1013.0
20260507162529 59 352 4.3 9.6 0.00 0.00 0.00 80 1013.0
20260507161527 59 332 6.1 13.0 0.00 0.00 0.00 81 1013.0
20260507160523 60 349 2.6 5.2 0.00 0.00 0.00 78 1013.0
20260507155521 60 4 2.6 6.1 0.00 0.00 0.00 75 1012.9
20260507154518 61 354 5.2 11.3 0.00 0.00 0.00 72 1012.7
20260507153556 64 359 3.5 9.6 0.00 0.00 0.00 72 1012.7
20260507152633 66 326 1.7 3.5 0.00 0.00 0.00 75 1012.2
20260507151611 65 350 1.7 5.2 0.00 0.00 0.00 76 1012.3
20260507150608 65 245 2.6 6.1 0.00 0.00 0.00 78 1012.2
20260507145606 65 304 1.7 6.1 0.00 0.00 0.00 78 1012.2
20260507144603 64 289 1.7 7.0 0.00 0.00 0.00 78 1012.2
20260507143600 65 347 2.6 5.2 0.00 0.00 0.00 76 1012.2
20260507142618 65 296 1.7 3.5 0.00 0.00 0.00 76 1012.2
20260507141555 66 335 2.6 6.1 0.00 0.00 0.00 75 1012.1
20260507140553 66 319 3.5 7.0 0.00 0.00 0.00 74 1012.1
20260507135550 66 330 2.6 6.1 0.00 0.00 0.00 73 1012.2
20260507134547 67 264 2.6 6.1 0.00 0.00 0.00 70 1012.3
20260507133545 68 335 2.6 9.6 0.00 0.00 0.00 68 1012.3
20260507132542 70 32 3.5 9.6 0.00 0.00 0.00 66 1012.5
20260507131559 71 28 4.3 7.8 0.00 0.00 0.00 62 1012.4
20260507130537 71 25 4.3 11.3 0.00 0.00 0.00 61 1012.6
20260507125534 71 333 4.3 12.2 0.00 0.00 0.00 60 1012.7
20260507124532 71 334 3.5 9.6 0.00 0.00 0.00 62 1012.8
20260507123529 69 325 3.5 9.6 0.00 0.00 0.00 66 1013.0
20260507122526 69 250 3.5 7.8 0.00 0.00 0.00 66 1013.1
20260507121524 70 295 2.6 9.6 0.00 0.00 0.00 64 1012.9
20260507120521 70 288 2.6 7.0 0.00 0.00 0.00 64 1013.1
20260507115518 70 293 2.6 7.0 0.00 0.00 0.00 65 1013.2
20260507113613 69 333 2.6 6.1 0.00 0.00 0.00 64 1013.5
20260507112631 70 332 2.6 5.2 0.00 0.00 0.00 63 1013.6
20260507111608 70 320 1.7 6.1 0.00 0.00 0.00 64 1013.8
20260507110626 69 0 3.5 9.6 0.00 0.00 0.00 62 1013.8
20260507105623 68 300 2.6 7.0 0.00 0.00 0.00 63 1013.9
20260507104601 69 15 1.7 6.1 0.00 0.00 0.00 59 1014.0
20260507103558 68 348 2.6 6.1 0.00 0.00 0.00 59 1014.0
20260507102555 68 2 2.6 7.8 0.00 0.00 0.00 58 1014.0
20260507101553 69 341 1.7 6.1 0.00 0.00 0.00 58 1014.0
20260507100550 68 26 1.7 7.0 0.00 0.00 0.00 62 1014.1
20260507095548 67 10 2.6 9.6 0.00 0.00 0.00 64 1014.1
20260507094545 67 21 1.7 3.5 0.00 0.00 0.00 64 1014.2
20260507093542 67 318 2.6 5.2 0.00 0.00 0.00 64 1014.3
20260507092540 67 349 1.7 11.3 0.00 0.00 0.00 65 1014.3
20260507091537 67 4 1.7 5.2 0.00 0.00 0.00 63 1014.3
20260507090614 67 339 1.7 6.1 0.00 0.00 0.00 62 1014.3
20260507085532 66 347 2.6 7.0 0.00 0.00 0.00 65 1014.2
20260507084529 66 317 1.7 3.5 0.00 0.00 0.00 64 1014.3
20260507083526 66 345 2.6 6.1 0.00 0.00 0.00 62 1014.2
20260507082524 67 354 1.7 5.2 0.00 0.00 0.00 61 1014.2
20260507081521 68 19 1.7 3.5 0.00 0.00 0.00 59 1014.2